Location: Antioch Baptist Church
(32.6696°N, 85.7327°W)
Time: 12:20:25
(UTC+00:00)

Cosmos 1709 Rocket - Pass Details

Date: 14 July 2020
Orbit: 948 x 1002 km, 82.9° (Epoch: 08 August)

Event Time Altitude Azimuth Distance (km) Brightness Sun altitude
Rises 01:24:18 0° 168° (SSE) 3,673 6.6 -6.8°
Reaches altitude 10° 01:26:52 10° 163° (SSE) 2,736 5.9 -7.2°
Maximum altitude 01:32:52 49° 91° (E) 1,268 4.3 -8.3°
Drops below altitude 10° 01:38:57 10° 18° (NNE) 2,774 6.6 -9.4°
Sets 01:41:34 0° 13° (NNE) 3,729 7.3 -9.8°
